TimeMST,TemperatureF,Dew PointF,Humidity,Sea Level PressureIn,VisibilityMPH,Wind Direction,Wind SpeedMPH,Gust SpeedMPH,PrecipitationIn,Events,Conditions,WindDirDegrees,DateUTC
12:53 AM,28.9,17.1,61,29.99,10.0,South,3.5,-,N/A,,Overcast,180,2012-12-26 07:53:00
1:53 AM,26.1,18.0,71,29.96,10.0,NW,3.5,-,N/A,,Clear,310,2012-12-26 08:53:00
2:53 AM,26.1,16.0,66,29.94,10.0,North,-9999.0,-,N/A,,Clear,0,2012-12-26 09:53:00
3:53 AM,28.0,14.0,56,29.91,10.0,Calm,Calm,-,N/A,,Clear,0,2012-12-26 10:53:00
4:53 AM,24.1,15.1,69,29.90,10.0,Calm,Calm,-,N/A,,Clear,0,2012-12-26 11:53:00
5:53 AM,26.1,12.9,58,29.89,10.0,Calm,Calm,-,N/A,,Clear,0,2012-12-26 12:53:00
6:53 AM,26.1,15.1,63,29.91,10.0,Calm,Calm,-,N/A,,Clear,0,2012-12-26 13:53:00
7:53 AM,25.0,14.0,63,29.92,10.0,South,5.8,-,N/A,,Clear,190,2012-12-26 14:53:00
8:53 AM,34.0,15.1,46,29.89,10.0,SE,6.9,-,N/A,,Clear,130,2012-12-26 15:53:00
9:53 AM,37.9,17.1,43,29.88,10.0,SE,11.5,-,N/A,,Partly Cloudy,130,2012-12-26 16:53:00
10:53 AM,44.1,10.9,26,29.86,10.0,SSW,10.4,-,N/A,,Scattered Clouds,200,2012-12-26 17:53:00
11:53 AM,45.0,12.9,27,29.83,10.0,SSW,15.0,21.9,N/A,,Mostly Cloudy,210,2012-12-26 18:53:00
12:53 PM,45.0,18.0,34,29.79,10.0,SSW,16.1,26.5,N/A,,Mostly Cloudy,210,2012-12-26 19:53:00
1:53 PM,45.0,18.0,34,29.76,10.0,SW,16.1,24.2,N/A,,Mostly Cloudy,220,2012-12-26 20:53:00
2:53 PM,42.1,21.0,43,29.77,10.0,SW,16.1,23.0,N/A,,Mostly Cloudy,220,2012-12-26 21:53:00
3:53 PM,39.9,21.0,47,29.77,10.0,SW,13.8,-,N/A,,Mostly Cloudy,220,2012-12-26 22:53:00
4:53 PM,36.0,24.1,62,29.82,7.0,WSW,16.1,19.6,0.00,Snow,Light Snow,240,2012-12-26 23:53:00
5:09 PM,33.8,26.6,75,29.84,2.0,West,12.7,-,0.00,Snow,Light Snow,260,2012-12-27 00:09:00
5:14 PM,33.8,28.4,81,29.84,0.8,West,10.4,-,0.00,Snow,Light Snow,270,2012-12-27 00:14:00
5:36 PM,32.0,28.4,87,29.84,5.0,WNW,6.9,-,0.00,Snow,Light Snow,300,2012-12-27 00:36:00
5:53 PM,33.1,28.0,82,29.84,10.0,West,8.1,-,0.00,,Overcast,270,2012-12-27 00:53:00
6:53 PM,32.0,27.0,82,29.86,10.0,Calm,Calm,-,N/A,,Overcast,0,2012-12-27 01:53:00
7:53 PM,30.9,25.0,79,29.87,10.0,SSW,6.9,-,N/A,,Clear,200,2012-12-27 02:53:00
8:53 PM,33.1,24.1,70,29.83,10.0,SW,9.2,-,N/A,,Clear,220,2012-12-27 03:53:00
9:53 PM,30.0,23.0,75,29.85,10.0,SW,8.1,-,N/A,,Clear,220,2012-12-27 04:53:00
10:53 PM,28.9,23.0,78,29.84,10.0,SSE,6.9,-,N/A,,Partly Cloudy,150,2012-12-27 05:53:00
11:53 PM,30.9,25.0,79,29.85,10.0,SSW,5.8,-,N/A,,Overcast,210,2012-12-27 06:53:00